Simultaneous Nadir Overpasses (SNOs) Predictions

Prediction of SNOs between METOP-C and LANDSAT-8 Satellite Orbit:

Table of predicted SNOs for the next 14.0 days since TLE Epoch: 7/16/2022
Index Date (METOP-C) Time (METOP-C) Lat,Lon (METOP-C) SZA (METOP-C ) Date (LANDSAT-8) Time (LANDSAT-8) Lat,Lon (LANDSAT-8) SZA (LANDSAT-8 ) Distance(km) Time Diff (sec)
1 07/17/2022 17:24:28 81.18, -40.18 62.16 07/17/2022 17:24:55 81.18, -40.18 62.17 0.30 27
2 07/17/2022 18:15:08 -81.20, 127.76 117.76 07/17/2022 18:14:21 -81.20, 127.77 117.78 0.41 47
3 07/20/2022 12:58:50 81.18, 26.15 62.65 07/20/2022 12:59:13 81.18, 26.18 62.67 0.66 23
4 07/20/2022 13:49:30 -81.20,-165.94 117.27 07/20/2022 13:48:39 -81.20,-165.84 117.28 1.74 51
5 07/23/2022 08:33:10 81.19, 92.81 63.23 07/23/2022 08:33:29 81.19, 92.81 63.25 0.58 19
6 07/23/2022 09:23:51 -81.19, -99.68 116.74 07/23/2022 09:22:56 -81.19, -99.55 116.75 2.15 55
7 07/26/2022 04:07:32 81.18, 159.05 63.81 07/26/2022 04:07:47 81.17, 158.97 63.80 1.61 15
8 07/26/2022 04:58:12 -81.20, -33.08 116.12 07/26/2022 04:57:13 -81.20, -33.00 116.14 1.39 59
9 07/28/2022 23:41:54 81.17,-134.75 64.42 07/28/2022 23:42:04 81.17,-134.61 64.44 2.32 10



Historial Predications of SNOs between METOP-C and LANDSAT-8
